Shannon, Ireland

10:00 PM IST on October 17, 2017 (GMT +0100)
Shannon

Weather History for EINN - November, 2013

Change the Weather History Date:

Monday, November 11, 2013

  Actual Average Record
Temperature  
Mean Temperature 52 °F -  
Max Temperature 56 °F 50 °F 59 °F (2011)
Min Temperature 49 °F 39 °F 37 °F (1996)
Degree Days  
Heating Degree Days 12    
Growing Degree Days 2 (Base 50)    
Moisture  
Dew Point 52 °F    
Average Humidity 95    
Maximum Humidity 100    
Minimum Humidity 82    
Precipitation  
Precipitation 0.00 in 0.13 in - ()
Sea Level Pressure  
Sea Level Pressure 30.05 in    
Wind  
Wind Speed 11 mph ()    
Max Wind Speed 18 mph    
Max Gust Speed -    
Visibility 4.2 miles    
Events Rain    
Averages and records for this station are not official NWS values.
T = Trace of Precipitation, MM = Missing Value Source: Averaged Metar Reports

Daily Weather History Graph

Daily Weather History Graph

Search for Another Location

Airport or City:

Trip Planner

Search our weather history database for the weather conditions in past years. The results will help you decide how hot, cold, wet, or windy it might be!

Date:

Astronomy

Nov. 11, 2013 Rise Set
Actual Time 7:51 AM GMT 4:47 PM GMT
Civil Twilight 7:13 AM GMT 5:25 PM GMT
Nautical Twilight 6:31 AM GMT 6:06 PM GMT
Astronomical Twilight 5:51 AM GMT 6:46 PM GMT
Moon 2:05 PM GMT (11/11) 12:31 AM GMT (11/11)
Length of Visible Light 10h 11m
Length of Day
8h 56m
Waxing Gibbous, 64% of the Moon is Illuminated
Nov 11
Waxing Gibbous
Nov 17
Full
Nov 25
Last Quarter
Dec 3
New
Dec 9
First Quarter

Hourly Weather History & Observations

Time (GMT) Temp. Dew Point Humidity Pressure Visibility Wind Dir Wind Speed Gust Speed Precip Events Conditions
12:00 AM 55 °F 55 °F 100% 29.91 in 1 mi SSW 11.2 mph - - Rain Light Rain
12:00 AM 55.4 °F 55.4 °F 100% 29.89 in 1.2 mi SSW 10.4 mph - N/A Rain Light Rain
12:30 AM 55.4 °F 55.4 °F 100% 29.89 in 0.9 mi SSW 10.4 mph - N/A Rain Light Rain
1:00 AM 55.4 °F 55.4 °F 100% 29.89 in 0.7 mi SSW 10.4 mph - N/A Rain Light Rain
1:30 AM 55.4 °F 55.4 °F 100% 29.89 in 0.9 mi SSW 10.4 mph - N/A Rain Light Rain
2:00 AM 55.4 °F 55.4 °F 100% 29.89 in 0.9 mi SSW 11.5 mph - N/A Rain Light Rain
2:30 AM 55.4 °F 55.4 °F 100% 29.89 in 0.7 mi SSW 12.7 mph - N/A Rain Light Rain
3:00 AM 55.4 °F 55.4 °F 100% 29.89 in 1.2 mi SW 12.7 mph - N/A Rain Light Rain
3:30 AM 55.4 °F 55.4 °F 100% 29.89 in 0.9 mi SW 15.0 mph - N/A Rain Light Rain
4:00 AM 55.4 °F 55.4 °F 100% 29.89 in 0.9 mi SW 16.1 mph - N/A Rain Light Rain
4:30 AM 55.4 °F 55.4 °F 100% 29.92 in 0.9 mi SW 17.3 mph - N/A Rain Light Rain
5:00 AM 55.4 °F 55.4 °F 100% 29.92 in 0.7 mi SW 17.3 mph - N/A Rain Light Rain
5:30 AM 55.4 °F 55.4 °F 100% 29.92 in 0.7 mi WSW 13.8 mph - N/A   Light Drizzle
6:00 AM 56 °F 56 °F 99% 29.95 in 1 mi WSW 17.9 mph - - Rain Light Drizzle
6:00 AM 55.4 °F 55.4 °F 100% 29.95 in 0.7 mi WSW 17.3 mph - N/A   Light Drizzle
6:30 AM 55.4 °F 55.4 °F 100% 29.95 in 0.7 mi WSW 17.3 mph - N/A   Light Drizzle
7:00 AM 55.4 °F 55.4 °F 100% 29.95 in 0.9 mi WSW 16.1 mph - N/A   Light Drizzle
7:30 AM 55.4 °F 55.4 °F 100% 29.98 in 1.0 mi WSW 15.0 mph - N/A   Light Drizzle
8:00 AM 53.6 °F 53.6 °F 100% 30.01 in 2.5 mi West 15.0 mph - N/A   Mostly Cloudy
8:30 AM 53.6 °F 53.6 °F 100% 30.01 in 3.7 mi West 13.8 mph - N/A   Mostly Cloudy
9:00 AM 53.6 °F 53.6 °F 100% 30.04 in 2.5 mi West 12.7 mph - N/A   Light Drizzle
9:30 AM 53.6 °F 53.6 °F 100% 30.04 in 6.2 mi West 12.7 mph - N/A   Mostly Cloudy
10:00 AM 53.6 °F 53.6 °F 100% 30.06 in 6.2 mi West 12.7 mph - N/A   Mostly Cloudy
10:30 AM 53.6 °F 51.8 °F 94% 30.06 in 6.2 mi West 13.8 mph - N/A   Scattered Clouds
11:00 AM 53.6 °F 51.8 °F 94% 30.09 in 6.2 mi West 10.4 mph - N/A   Scattered Clouds
11:30 AM 53.6 °F 51.8 °F 94% 30.09 in 6.2 mi West 11.5 mph - N/A   Scattered Clouds
12:00 PM 54 °F 51 °F 88% 30.12 in 9 mi West 11.2 mph - -   Partly Cloudy
12:00 PM 53.6 °F 51.8 °F 94% 30.09 in 6.2 mi West 10.4 mph - N/A   Mostly Cloudy
12:30 PM 55.4 °F 51.8 °F 88% 30.09 in 6.2 mi West 11.5 mph - N/A   Mostly Cloudy
1:00 PM 55.4 °F 50.0 °F 82% 30.09 in 6.2 mi West 10.4 mph - N/A   Mostly Cloudy
1:30 PM 55.4 °F 51.8 °F 88% 30.09 in 6.2 mi WSW 8.1 mph - N/A   Mostly Cloudy
2:00 PM 53.6 °F 50.0 °F 88% 30.12 in 6.2 mi West 9.2 mph - N/A   Mostly Cloudy
2:30 PM 55.4 °F 50.0 °F 82% 30.12 in 6.2 mi WSW 6.9 mph - N/A   Mostly Cloudy
3:00 PM 53.6 °F 50.0 °F 88% 30.12 in 6.2 mi WSW 5.8 mph - N/A   Mostly Cloudy
3:30 PM 53.6 °F 50.0 °F 88% 30.12 in 6.2 mi WSW 8.1 mph - N/A   Mostly Cloudy
4:00 PM 53.6 °F 50.0 °F 88% 30.12 in 6.2 mi WSW 9.2 mph - N/A   Mostly Cloudy
4:30 PM 53.6 °F 50.0 °F 88% 30.12 in 6.2 mi WSW 8.1 mph - N/A   Mostly Cloudy
5:00 PM 51.8 °F 50.0 °F 94% 30.15 in 6.2 mi WSW 9.2 mph - N/A   Mostly Cloudy
5:30 PM 51.8 °F 50.0 °F 94% 30.15 in 6.2 mi WSW 6.9 mph - N/A   Mostly Cloudy
6:00 PM 52 °F 49 °F 87% 30.17 in 9 mi WSW 6.7 mph - -   Mist
6:00 PM 51.8 °F 50.0 °F 94% 30.15 in 6.2 mi WSW 6.9 mph - N/A   Mostly Cloudy
6:30 PM 51.8 °F 48.2 °F 88% 30.15 in 6.2 mi SW 5.8 mph - N/A   Mostly Cloudy
7:00 PM 51.8 °F 48.2 °F 88% 30.18 in 6.2 mi SW 5.8 mph - N/A   Mostly Cloudy
7:30 PM 50.0 °F 48.2 °F 94% 30.18 in 6.2 mi SW 5.8 mph - N/A   Mostly Cloudy
8:00 PM 50.0 °F 48.2 °F 94% 30.18 in 6.2 mi SW 5.8 mph - N/A   Mostly Cloudy
8:30 PM 50.0 °F 48.2 °F 94% 30.18 in 6.2 mi SW 8.1 mph - N/A   Mostly Cloudy
9:00 PM 50.0 °F 48.2 °F 94% 30.18 in 6.2 mi SW 9.2 mph - N/A   Mostly Cloudy
9:30 PM 50.0 °F 48.2 °F 94% 30.21 in 6.2 mi SW 8.1 mph - N/A   Mostly Cloudy
10:00 PM 50.0 °F 48.2 °F 94% 30.21 in 6.2 mi WSW 9.2 mph - N/A   Mostly Cloudy
10:30 PM 50.0 °F 48.2 °F 94% 30.21 in - SW 5.8 mph - N/A   Clear
11:00 PM 50.0 °F 48.2 °F 94% 30.21 in - SW 5.8 mph - N/A   Clear
11:30 PM 50.0 °F 48.2 °F 94% 30.21 in - SW 8.1 mph - N/A   Clear